• Join FlightAware (Why Join?)
  • Login
  • US Flag GB Flag 
05:35 EDT


 

Airport Tracker/Info


-or-


 

Live Flight TrackerFlight Track Log ✈ RPA3161 ✈ 26-Jun-2013 ✈ KBTV - KDCA

Flight Track Log - Related Links

Times and Time Zones

All times are in EDT time to prevent confusion due to time zone crossing. See the RPA3161 flight status page for this flight to view local times or setup timezone preferences in your user account.

Time Position Orientation Groundspeed Altitude Reporting Facility
EDT Latitude Longitude Course Direction KTS MPH feet Rate Location/Type
13:51 44.3381 -73.1772 198° South 270 311 5,200  Level Boston Center
13:52 44.0692 -73.2990 195° South  Level FlightAware Approximate
13:52 44.2650 -73.2056 196° South 305 351 7,700  Level Boston Center
13:53 43.9688 -73.3327 194° South  Level FlightAware Approximate
13:53 44.1856 -73.2392 197° South 297 342 10,000  Level Boston Center
13:54 43.8687 -73.3681 195° South  Level FlightAware Approximate
13:54 44.1267 -73.3136 222° Southwest 292 336 12,900  Level Boston Center
13:55 43.7689 -73.4055 195° South  Level FlightAware Approximate
13:55 44.0678 -73.3906 223° Southwest 292 336 15,400  Level Boston Center
13:56 43.6692 -73.4428 195° South  Level FlightAware Approximate
13:56 44.0047 -73.4675 221° Southwest 297 342 18,100  Level Boston Center
13:57 43.5708 -73.4861 198° South  Level FlightAware Approximate
13:57 43.9247 -73.5353 211° Southwest 306 352 20,800  Level Boston Center
13:58 43.8369 -73.5683 195° South 323 372 22,900 1,980 Climbing Boston Center
13:59 43.7450 -73.5925 191° South 341 392 24,800 1,500 Climbing Boston Center
14:00 43.6489 -73.6108 188° South 341 392 26,000 600 Climbing Boston Center
14:01 43.5489 -73.6317 189° South 359 413 26,000  Level Boston Center
14:02 43.4444 -73.6525 188° South 370 426 26,000 480 Level Boston Center
14:03 43.3419 -73.6733 188° South 370 426 27,000 1,200 Climbing Boston Center
14:04 43.2394 -73.6997 191° South 375 432 28,500 1,680 Climbing Boston Center
14:05 43.1350 -73.7233 189° South 375 432 30,400 1,680 Climbing Boston Center
14:06 43.0475 -73.7383 187° South 369 425 31,900 780 Climbing Boston Center
14:07 42.9700 -73.7567 190° South 364 419 32,000  Climbing Boston Center
14:08 42.8511 -73.7825 189° South 364 419 32,000  Level Boston Center
14:09 42.7486 -73.8028 188° South 369 425 32,000  Level Boston Center
14:10 42.6444 -73.7922 176° South 375 432 32,000  Level Boston Center
14:11 42.5300 -73.7756 174° South 369 425 32,000  Level Boston Center
14:12 42.4239 -73.7592 173° South 379 436 32,000  Level Boston Center
14:13 42.3408 -73.7489 175° South 379 436 32,000  Level Boston Center
14:14 42.2367 -73.7328 173° South 379 436 32,000  Level Boston Center
14:15 42.1097 -73.7161 174° South 384 442 32,000  Level Boston Center
14:16 42.0156 -73.7644 201° Southwest 359 413 32,000  Level Boston Center
14:17 41.9231 -73.8156 202° Southwest 364 419 32,000  Level Boston Center
14:19 41.7889 -73.8842 201° Southwest 368 423 32,000  Level New York Center
14:20 41.6939 -73.9325 201° Southwest 373 429 32,000  Level New York Center
14:21 41.5989 -73.9833 202° Southwest 373 429 32,000  Level New York Center
14:22 41.5103 -74.0289 201° Southwest 360 414 32,000  Level New York Center
14:23 41.4172 -74.0797 202° Southwest 360 414 32,000  Level New York Center
14:24 41.3219 -74.1303 202° Southwest 360 414 32,000  Level New York Center
14:25 41.2292 -74.1781 201° Southwest 360 414 32,000  Level New York Center
14:26 41.1297 -74.2281 201° Southwest 374 430 32,000  Level New York Center
14:27 41.0367 -74.2756 201° Southwest 368 423 32,000 -720 Level New York Center
14:28 40.9331 -74.3308 202° Southwest 368 423 30,600 -1,680 Descending New York Center
14:29 40.8461 -74.3756 201° Southwest 374 430 28,700 -1,380 Descending New York Center
14:30 40.7628 -74.4478 213° Southwest 374 430 28,000 -660 Descending New York Center
14:31 40.6908 -74.5425 225° Southwest 370 426 27,400 -1,140 Descending New York Center
14:32 40.5869 -74.5997 203° Southwest 370 426 25,800 -1,320 Descending New York Center
14:33 40.4958 -74.6492 202° Southwest 364 419 24,800 -1,200 Descending New York Center
14:34 40.4086 -74.6986 203° Southwest 358 412 23,500 -1,320 Descending New York Center
14:35 40.3314 -74.7706 215° Southwest 353 406 22,200 -780 Descending New York Center
14:36 40.2922 -74.8772 244° Southwest 328 377 22,000 -120 Descending New York Center
14:37 40.2617 -74.9761 248° West 334 384 22,000  Level New York Center
14:38 40.2217 -75.0986 247° West 334 384 22,000  Level New York Center
14:39 40.1864 -75.2078 247° West 329 379 22,000  Level New York Center
14:40 40.1511 -75.3169 247° West 329 379 22,000  Level New York Center
14:41 40.1053 -75.4169 239° Southwest 329 379 22,000  Level New York Center
14:42 40.0417 -75.5022 226° Southwest 334 384 22,000  Level New York Center
14:43 39.9797 -75.5903 227° Southwest 339 390 22,000  Level New York Center
14:44 39.9156 -75.6778 226° Southwest 332 382 22,000  Level New York Center
14:45 39.8681 -75.7664 235° Southwest 332 382 22,000  Level New York Center
14:46 39.8056 -75.8619 230° Southwest 332 382 22,000 -360 Level New York Center
14:47 39.7472 -75.9550 231° Southwest 332 382 21,400 -1,200 Descending New York Center
14:48 39.6958 -76.0347 230° Southwest 332 382 19,600 -1,920 Descending New York Center
14:49 39.6375 -76.1275 231° Southwest 339 390 17,700 -1,920 Descending New York Center
14:50 39.5500 -76.2500 227° Southwest 298 343 15,100 -1,740 Descending Potomac TRACON
14:51 39.5000 -76.3333 232° Southwest 286 329 13,600 -1,560 Descending Potomac TRACON
14:52 39.4500 -76.4167 232° Southwest 289 333 12,000 -960 Descending Potomac TRACON
14:53 39.3833 -76.4667 210° Southwest 289 333 11,700 -540 Descending Potomac TRACON
14:54 39.3167 -76.5333 218° Southwest 288 331 11,000 -780 Descending Potomac TRACON
14:55 39.2500 -76.5833 210° Southwest 290 334 10,200 -540 Descending Potomac TRACON
14:56 39.1833 -76.6500 218° Southwest 285 328 10,000 -120 Descending Potomac TRACON
14:57 39.1500 -76.7333 243° Southwest 278 320 10,000 -180 Level Potomac TRACON
14:58 39.1167 -76.8167 243° Southwest 276 318 9,700 -900 Descending Potomac TRACON
14:59 39.0833 -76.9167 247° West 270 311 8,300 -1,080 Descending Potomac TRACON
15:00 39.0667 -77.0000 256° West 257 296 7,600 -720 Descending Potomac TRACON
15:01 39.0500 -77.0833 256° West 238 274 6,900 -600 Descending Potomac TRACON
15:02 39.0333 -77.1500 252° West 189 217 6,400 -900 Descending Potomac TRACON
15:03 39.0000 -77.2000 229° Southwest 175 201 5,200 -1,440 Descending Potomac TRACON
15:04 38.9667 -77.2000 180° South 199 229 3,600 -1,620 Descending Potomac TRACON